This is the latest recevied weather packets stored in our database for station/object KC9DRE. If no packets are shown the sender has not sent any weather packets the latest 10 day(s).
| Time | Temp. | Humidity | Pressure | Rain* | Wind** | Luminosity | Snow |
|---|---|---|---|---|---|---|---|
| 1787621321 | 16.11° C | 94% | 1018.9 hPa | 0 mm | - | 0 W/m² | - |
| 1787621016 | 16.11° C | 94% | 1018.9 hPa | 0 mm | - | 0 W/m² | - |
| 1787620713 | 16.67° C | 93% | 1018.7 hPa | 0 mm | - | 0 W/m² | - |
| 1787620408 | 16.67° C | 93% | 1018.7 hPa | 0 mm | - | 0 W/m² | - |
| 1787620104 | 16.67° C | 93% | 1018.5 hPa | 0 mm | - | 0 W/m² | - |
| 1787619804 | 16.67° C | 92% | 1018.5 hPa | 0 mm | - | 0 W/m² | - |
| 1787619500 | 17.22° C | 92% | 1018.3 hPa | 0 mm | - | 0 W/m² | - |
| 1787619195 | 17.22° C | 91% | 1018.3 hPa | 0 mm | - | 0 W/m² | - |
| 1787618894 | 17.22° C | 91% | 1018.3 hPa | 0 mm | - | 0 W/m² | - |
| 1787618590 | 17.78° C | 90% | 1018.1 hPa | 0 mm | - | 0 W/m² | - |
| 1787618287 | 17.78° C | 90% | 1018.1 hPa | 0 mm | - | 0 W/m² | - |
| 1787617983 | 18.33° C | 89% | 1018.1 hPa | 0 mm | - | 1 W/m² | - |
| 1787617683 | 18.89° C | 88% | 1017.9 hPa | 0 mm | - | 2 W/m² | - |
| 1787617377 | 18.89° C | 88% | 1018.2 hPa | 0 mm | - | 4 W/m² | - |
| 1787617077 | 19.44° C | 87% | 1018.2 hPa | 0 mm | - | 6 W/m² | - |
| 1787616772 | 19.44° C | 86% | 1018.2 hPa | 0 mm | - | 8 W/m² | - |
| 1787616471 | 20° C | 85% | 1018.2 hPa | 0 mm | - | 11 W/m² | - |
| 1787616169 | 20.56° C | 84% | 1018.3 hPa | 0 mm | - | 14 W/m² | - |
| 1787615869 | 20.56° C | 82% | 1018.2 hPa | 0 mm | - | 19 W/m² | - |
| 1787615564 | 21.11° C | 82% | 1018.3 hPa | 0 mm | - | 23 W/m² | - |
| 1787615260 | 21.67° C | 80% | 1018.2 hPa | 0 mm | - | 27 W/m² | - |
| 1787614956 | 21.67° C | 79% | 1018.3 hPa | 0 mm | - | 31 W/m² | - |
| 1787614651 | 22.22° C | 77% | 1018.4 hPa | 0 mm | - | 37 W/m² | - |
| 1787614348 | 22.22° C | 76% | 1018.3 hPa | 0 mm | - | 44 W/m² | - |
| 1787614045 | 22.78° C | 74% | 1018.2 hPa | 0 mm | - | 50 W/m² | - |
* Rain latest hour (hover to see other rain measurements)
** Current wind speed in m/s (hover to see current wind gust speed)